SILO ALERT LOG
| Silo ID | Alert Type | Alert Message | Silo Type | Points | Depth (mm) | Strength | Temperature (°C) | Humidity (%) | Height (mm) | Volume (㎥) | Weight (t) | Flag | Time |
|---|---|---|---|---|---|---|---|---|---|---|---|---|---|
| DJHNR11 | Temperature | 온도센서 측정값이 0도 미만 | 호퍼 | 226 | 3289 | 1077 | -3.3 | 75.1 | 7090 | 98.998 | 62.587 | 11 | 2024-01-11 03:39:31.000 |
| DJSAD18 | Humidity | 습도센서 측정값이 80% 초과 | 평 | 114 | 1390 | 5836 | 3.8 | 80.8 | 6189 | 616.347 | 389.654 | 11 | 2024-01-11 03:39:30.000 |
| DJHNR14 | Temperature | 온도센서 측정값이 0도 미만 | 호퍼 | 30 | 2914 | 4405 | -2.4 | 72.7 | 7465 | 107.073 | 67.691 | 11 | 2024-01-11 03:39:30.000 |
| DJSAD17 | Humidity | 습도센서 측정값이 80% 초과 | 평 | 448 | 3129 | 4832 | 3.2 | 80.5 | 4450 | 443.206 | 280.195 | 0 | 2024-01-11 03:39:29.000 |
| DJHNR12 | Humidity | 습도센서 측정값이 80% 초과 | 호퍼 | 0 | 10500 | 0 | -3 | 82.6 | -120 | 0 | 0 | 31 | 2024-01-11 03:39:24.000 |
| DJHNR12 | Temperature | 온도센서 측정값이 0도 미만 | 호퍼 | 0 | 10500 | 0 | -3 | 82.6 | -120 | 0 | 0 | 31 | 2024-01-11 03:39:24.000 |
| DJSSD12 | Temperature | 온도센서 상태 이상 | 호퍼 | 0 | 11350 | 0 | -999 | -999 | -120 | 0 | 0 | 31 | 2024-01-11 03:39:24.000 |
| DJHNR03 | Temperature | 온도센서 상태 이상 | 호퍼 | 0 | 15500 | 0 | -999 | -999 | -119 | 0 | 0 | 31 | 2024-01-11 03:39:23.000 |
| DJSAD03 | Humidity | 습도센서 측정값이 80% 초과 | 평 | 441 | 1843 | 6177 | 1.9 | 84.5 | 6936 | 287.156 | 181.54 | 0 | 2024-01-11 02:39:40.000 |
| DJSAD01 | Humidity | 습도센서 측정값이 80% 초과 | 평 | 466 | 1510 | 7348 | 0.8 | 88.5 | 7269 | 300.915 | 190.239 | 0 | 2024-01-11 02:39:40.000 |
| DJSAD02 | Humidity | 습도센서 측정값이 80% 초과 | 평 | 380 | 1132 | 4277 | 1.6 | 87.7 | 7647 | 316.591 | 200.149 | 11 | 2024-01-11 02:39:39.000 |
| DJDJD03 | Humidity | 습도센서 측정값이 80% 초과 | 평 | 68 | 4331 | 5124 | 1.7 | 80.7 | 3348 | 405.651 | 256.453 | 0 | 2024-01-11 02:39:39.000 |
| DJSAD08 | Humidity | 습도센서 측정값이 80% 초과 | 평 | 0 | 7700 | 3854 | 12.4 | 81.5 | -120 | -17.075 | 0 | 12 | 2024-01-11 02:39:38.000 |
| DJSAD11 | Humidity | 습도센서 측정값이 80% 초과 | 평 | 331 | 1643 | 3262 | 1 | 80.5 | 5936 | 844.675 | 534.003 | 11 | 2024-01-11 02:39:35.000 |
| DJHNR13 | Temperature | 온도센서 측정값이 0도 미만 | 호퍼 | 396 | 2557 | 2614 | -1.2 | 70.4 | 7822 | 114.788 | 72.569 | 11 | 2024-01-11 02:39:33.000 |
| DJDJD04 | Humidity | 습도센서 측정값이 80% 초과 | 평 | 280 | 4180 | 4484 | 2.7 | 81.7 | 3499 | 424.032 | 268.073 | 11 | 2024-01-11 02:39:33.000 |
| DJHNR11 | Temperature | 온도센서 측정값이 0도 미만 | 호퍼 | 231 | 3244 | 1078 | -2.9 | 75.3 | 7135 | 99.96 | 63.195 | 11 | 2024-01-11 02:39:33.000 |
| DJSSD01 | Humidity | 습도센서 측정값이 80% 초과 | 평 | 793 | 2571 | 4665 | 5 | 83.8 | 5508 | 766.654 | 484.678 | 0 | 2024-01-11 02:39:33.000 |
| DJSSD05 | Temperature | 온도센서 측정값이 0도 미만 | 평 | 845 | 2546 | 4868 | -45.4 | 43.7 | 5533 | 770.09 | 486.851 | 0 | 2024-01-11 02:39:33.000 |
| DJSSD04 | Temperature | 온도센서 상태 이상 | 평 | 0 | 8200 | 0 | -999 | -999 | -120 | -16.702 | 0 | 31 | 2024-01-11 02:39:33.000 |
[첫 페이지] [10007] [10008] [10009] [10010] 10011 [10012] [10013] [10014] [10015] [마지막 페이지]